Погода в Челнах

Россия / Хабаровский край     48°52′53″N   136°00′48″E
темп.,
°C
ветер,
м/с
пор.,
м/с
влажн.,
%
обл.,
%
осадки,
мм/ч
давл.,
гПа
погр.,
м
29 июля, чт
чт2901:00+26ю2270100 0.0 100018
04:00+25юз227343 0.0 100023
07:00+26ю257199 0.0 1000155
10:00+31юз4554100 0.0 1000604
13:00+34юз574412 0.0 9991657
16:00+35зюз57396 0.0 9972074
19:00+32зюз4648100 0.0 998609
22:00+26зюз2466100 0.0 99877
30 июля, пт
пт3001:00+25юз3567100 0.0 998124
04:00+24ююз3664100 0.0 998159
07:00+24ююз3669100 0.0 999182
10:00+27з2358100 0.0 1000690
13:00+29з2352100 0.1 10001526
16:00+27юв1268100 1.5 1000439
19:00+23св4783100 1.2 1001199
22:00+20св51281100 1.5 1003332
31 июля, сб
сб3101:00+18св61279100 0.0 1004333
04:00+16св61381100 0.1 1005370
07:00+16св61379100 0.0 1005376
10:00+21св6866100 0.0 1006553
13:00+25св4558100 0.0 1005757
16:00+26св5559100 0.0 1004812
19:00+19св61080100 0.4 1005305
22:00+15ссв6128972 0.6 1007303
1 августа, вс
вс101:00+14ссв6129191 0.3 1007305
04:00+14св5119690 1.6 1006287
07:00+14св5996100 0.0 1008259
10:00+16ссв568543 0.0 1008318
13:00+24св555987 0.0 1007634
16:00+25ссв67568 0.0 1006593
19:00+22св69653 0.0 1006401
22:00+17ссв5117957 0.0 1007273
2 августа, пн
пн201:00+14ссв598785 0.0 1007226
04:00+15ссв3683100 0.0 1007188
07:00+16св34827 0.0 1008168
10:00+24св326239 0.0 1008493
13:00+28св325042 0.0 10071024
16:00+30св434883 0.0 10061223
19:00+26св575954 0.0 1006515
22:00+21св51075100 0.0 1007274